Location: Silverdale
(47.6506°N, 122.6941°W)
Time: 14:08:55
(UTC+00:00)

Tiros 1 despin weight - Visible Passes

Search period start: 03 October 2022 00:00
Search period end: 13 October 2022 00:00
Orbit: 590 x 638 km, 48.2° (Epoch: 02 October)

Date Brightness Start Highest point End Pass type
(mag) Time Alt. Az. Time Alt. Az. Time Alt. Az.
03 Oct ? 02:23:33 10° W 02:28:06 86° N 02:32:39 10° E visible
03 Oct ? 04:05:05 10° W 04:09:38 82° SSW 04:09:38 82° SSW visible
04 Oct ? 02:38:58 10° W 02:43:31 83° N 02:47:14 16° E visible
04 Oct ? 04:20:29 10° WNW 04:24:13 53° WSW 04:24:13 53° WSW visible
05 Oct ? 02:54:22 10° W 02:58:56 89° NNE 03:01:50 22° E visible
05 Oct ? 04:35:55 10° W 04:38:49 33° WSW 04:38:49 33° WSW visible
06 Oct ? 03:09:45 10° W 03:14:18 76° SSW 03:16:28 31° ESE visible
06 Oct ? 04:51:29 10° W 04:53:27 21° WSW 04:53:27 21° WSW visible
07 Oct ? 03:25:08 10° W 03:29:36 56° SSW 03:31:09 37° SE visible
07 Oct ? 05:07:26 10° W 05:08:07 13° WSW 05:08:07 13° WSW visible
08 Oct ? 01:59:01 10° W 02:03:33 87° S 02:08:08 10° ESE visible
08 Oct ? 03:40:35 10° W 03:44:48 38° SSW 03:45:53 33° S visible
09 Oct ? 02:14:23 10° WNW 02:18:53 69° SSW 02:23:26 10° ESE visible
09 Oct ? 03:56:14 10° W 03:59:54 24° SW 04:00:41 23° SSW visible
10 Oct ? 02:29:46 10° W 02:34:08 49° SSW 02:38:33 10° SE visible
10 Oct ? 04:12:26 10° WSW 04:14:53 14° SW 04:15:35 14° SSW visible
11 Oct ? 02:45:15 10° W 02:49:18 32° SSW 02:53:22 10° SSE visible
12 Oct ? 03:01:00 10° W 03:04:20 20° SW 03:07:41 10° S visible
